Simultaneous Nadir Overpasses (SNOs) Predictions

Prediction of SNOs between TERRA and METOP-C Satellite Orbit:

Table of predicted SNOs for the next 14.0 days since TLE Epoch: 12/17/2023
Index Date (TERRA) Time (TERRA) Lat,Lon (TERRA) SZA (TERRA ) Date (METOP-C) Time (METOP-C) Lat,Lon (METOP-C) SZA (METOP-C ) Distance(km) Time Diff (sec)
1 12/19/2023 02:03:09 -80.13, -7.31 75.70 12/19/2023 02:03:02 -80.14, -7.18 75.69 2.59 7
2 12/19/2023 02:52:28 80.23, 161.20 104.45 12/19/2023 02:53:40 80.22, 161.07 104.46 2.69 72
3 12/21/2023 17:24:00 80.10, -57.79 104.27 12/21/2023 17:24:00 80.10, -57.77 104.28 0.49 0
4 12/24/2023 07:55:33 79.95, 83.12 104.02 12/24/2023 07:54:22 79.95, 83.07 103.99 1.07 71
5 12/24/2023 08:44:51 -80.08,-108.19 75.80 12/24/2023 08:44:58 -80.08,-108.26 75.81 1.38 7
6 12/26/2023 23:16:23 -79.96, 32.91 76.08 12/26/2023 23:15:19 -79.95, 32.84 76.10 1.60 64
7 12/27/2023 00:05:40 80.13,-158.07 104.17 12/27/2023 00:05:54 80.13,-158.00 104.18 1.45 14
8 12/29/2023 14:37:13 79.95, -17.41 103.77 12/29/2023 14:36:17 79.94, -17.55 103.73 2.98 56



Historial Predications of SNOs between TERRA and METOP-C
